TimeCST,TemperatureF,Dew PointF,Humidity,Sea Level PressureIn,VisibilityMPH,Wind Direction,Wind SpeedMPH,Gust SpeedMPH,PrecipitationIn,Events,Conditions,WindDirDegrees,DateUTC
12:53 AM,42.1,32.0,67,30.09,10.0,North,11.5,-,N/A,,Overcast,350,2013-02-16 06:53:00
1:53 AM,39.9,30.0,68,30.08,10.0,North,10.4,-,N/A,,Scattered Clouds,350,2013-02-16 07:53:00
2:53 AM,39.9,28.9,65,30.09,10.0,NNW,11.5,-,N/A,,Mostly Cloudy,330,2013-02-16 08:53:00
3:53 AM,39.0,28.0,65,30.10,10.0,North,10.4,-,N/A,,Mostly Cloudy,350,2013-02-16 09:53:00
4:53 AM,37.9,28.0,68,30.10,10.0,NNW,9.2,-,N/A,,Scattered Clouds,330,2013-02-16 10:53:00
5:53 AM,35.1,21.9,59,30.12,10.0,North,11.5,-,N/A,,Partly Cloudy,350,2013-02-16 11:53:00
6:53 AM,33.1,21.9,64,30.13,10.0,North,6.9,-,N/A,,Clear,350,2013-02-16 12:53:00
7:53 AM,36.0,23.0,59,30.15,10.0,North,8.1,-,N/A,,Clear,350,2013-02-16 13:53:00
8:53 AM,37.9,19.9,48,30.16,10.0,NW,10.4,-,N/A,,Clear,320,2013-02-16 14:53:00
9:53 AM,39.9,14.0,35,30.17,10.0,NNW,10.4,23.0,N/A,,Clear,330,2013-02-16 15:53:00
10:53 AM,42.1,12.9,31,30.18,10.0,WNW,18.4,26.5,N/A,,Scattered Clouds,300,2013-02-16 16:53:00
11:53 AM,43.0,12.9,30,30.16,10.0,WNW,15.0,24.2,N/A,,Mostly Cloudy,290,2013-02-16 17:53:00
12:53 PM,44.1,12.0,27,30.14,10.0,NNW,15.0,27.6,N/A,,Mostly Cloudy,340,2013-02-16 18:53:00
1:53 PM,41.0,10.9,29,30.14,10.0,NW,17.3,27.6,N/A,,Mostly Cloudy,310,2013-02-16 19:53:00
2:53 PM,43.0,12.0,28,30.13,10.0,NNW,9.2,-,N/A,,Mostly Cloudy,330,2013-02-16 20:53:00
3:53 PM,41.0,12.9,32,30.15,10.0,West,15.0,23.0,N/A,,Mostly Cloudy,280,2013-02-16 21:53:00
4:53 PM,39.0,17.1,41,30.17,10.0,WNW,12.7,21.9,N/A,,Mostly Cloudy,300,2013-02-16 22:53:00
5:53 PM,37.0,18.0,46,30.18,10.0,NW,9.2,-,0.00,,Mostly Cloudy,310,2013-02-16 23:53:00
6:53 PM,36.0,18.0,48,30.21,10.0,NW,9.2,-,N/A,,Mostly Cloudy,310,2013-02-17 00:53:00
7:53 PM,35.1,17.1,48,30.23,10.0,NW,9.2,-,N/A,,Clear,310,2013-02-17 01:53:00
8:53 PM,33.1,18.0,54,30.25,10.0,West,5.8,-,N/A,,Clear,270,2013-02-17 02:53:00
9:53 PM,32.0,18.0,56,30.26,10.0,NW,8.1,-,N/A,,Clear,320,2013-02-17 03:53:00
10:53 PM,30.0,18.0,61,30.26,10.0,West,4.6,-,N/A,,Clear,280,2013-02-17 04:53:00
11:53 PM,30.0,17.1,59,30.27,10.0,NW,5.8,-,N/A,,Clear,310,2013-02-17 05:53:00